,,Stat6,,Stat2,,Stat8,,Stat9,,Stat10,,Wind1,,Wind1,
time,status,PA1M_AVG,status,PR1M_SUM,status,RH1M_AVG,status,SR1M_AVG,status,TA1M_AVG,status,W1dAve1m,status,W1sAve1m,
2004-06-08, 00:00:01,VALID,918.972,VALID,0,VALID,99.0224,VALID,0.0169808,VALID,17.7295,VALID,52,VALID,0.73952,
2004-06-08, 00:01:00,VALID,918.948,VALID,0,VALID,98.9079,VALID,0,VALID,17.7004,VALID,51,VALID,0.646257,
2004-06-08, 00:02:00,VALID,918.937,VALID,0,VALID,98.6117,VALID,0,VALID,17.6395,VALID,49,VALID,0.713481,
2004-06-08, 00:03:00,VALID,918.927,VALID,0,VALID,98.5048,VALID,0,VALID,17.539,VALID,39,VALID,1.05801,
2004-06-08, 00:04:00,VALID,918.931,VALID,0,VALID,98.9588,VALID,0.0169808,VALID,17.5134,VALID,29,VALID,1.03601,
2004-06-08, 00:05:00,VALID,918.929,VALID,0,VALID,99.6213,VALID,-0.0679233,VALID,17.5754,VALID,24,VALID,0.837536,
2004-06-08, 00:06:00,VALID,918.918,VALID,0,VALID,99.6468,VALID,-0.0849042,VALID,17.5989,VALID,24,VALID,0.681402,
2004-06-08, 00:07:00,VALID,918.922,VALID,0,VALID,99.5132,VALID,-0.101885,VALID,17.563,VALID,24,VALID,0.353819,
2004-06-08, 00:08:00,VALID,918.924,VALID,0,VALID,99.6035,VALID,-0.101885,VALID,17.5696,VALID,17,VALID,0.334821,
2004-06-08, 00:09:00,VALID,918.947,VALID,0,VALID,99.9049,VALID,-0.101885,VALID,17.6342,VALID,353,VALID,0.342076,
2004-06-08, 00:10:00,VALID,918.94,VALID,0,VALID,99.9964,VALID,-0.0849042,VALID,17.6891,VALID,353,VALID,0.0596591,
2004-06-08, 00:11:00,VALID,918.942,VALID,0,VALID,100,VALID,-0.0849042,VALID,17.734,VALID,353,VALID,0.235899,
2004-06-08, 00:12:00,VALID,918.927,VALID,0,VALID,99.9756,VALID,-0.0849042,VALID,17.7536,VALID,353,VALID,0.0610465,
2004-06-08, 00:13:00,VALID,918.914,VALID,0,VALID,99.896,VALID,-0.101885,VALID,17.7274,VALID,353,VALID,0.00181686,
2004-06-08, 00:14:00,VALID,918.909,VALID,0,VALID,99.5323,VALID,-0.101885,VALID,17.6757,VALID,353,VALID,0,
2004-06-08, 00:15:00,VALID,918.903,VALID,0,VALID,99.1178,VALID,-0.0849042,VALID,17.5987,VALID,353,VALID,0,
2004-06-08, 00:16:00,VALID,918.88,VALID,0,VALID,99.1623,VALID,-0.101885,VALID,17.5404,VALID,353,VALID,0,
2004-06-08, 00:17:00,VALID,918.873,VALID,0,VALID,99.3492,VALID,-0.101885,VALID,17.547,VALID,353,VALID,0.18022,
2004-06-08, 00:18:00,VALID,918.879,VALID,0,VALID,99.4102,VALID,-0.101885,VALID,17.5404,VALID,353,VALID,0.281059,
2004-06-08, 00:19:00,VALID,918.874,VALID,0,VALID,99.2932,VALID,-0.101885,VALID,17.5051,VALID,353,VALID,0.215909,
2004-06-08, 00:20:01,VALID,918.875,VALID,0,VALID,99.0656,VALID,-0.0169808,VALID,17.456,VALID,353,VALID,0.114462,
2004-06-08, 00:21:00,VALID,918.893,VALID,0,VALID,98.969,VALID,-0.0169808,VALID,17.3942,VALID,353,VALID,0.402248,
2004-06-08, 00:22:00,VALID,918.873,VALID,0,VALID,99.1178,VALID,0,VALID,17.3426,VALID,138,VALID,0.853981,
2004-06-08, 00:23:00,VALID,918.866,VALID,0,VALID,99.3975,VALID,-0.0169808,VALID,17.3329,VALID,132,VALID,0.680078,
2004-06-08, 00:24:00,VALID,918.845,VALID,0,VALID,99.6429,VALID,-0.0339617,VALID,17.3359,VALID,131,VALID,0.566051,
2004-06-08, 00:25:01,VALID,918.818,VALID,0,VALID,99.9484,VALID,0,VALID,17.3523,VALID,124,VALID,0.871289,
2004-06-08, 00:26:00,VALID,918.782,VALID,0,VALID,100,VALID,0,VALID,17.4166,VALID,99,VALID,0.9871,
2004-06-08, 00:27:00,VALID,918.772,VALID,0,VALID,100,VALID,0.0339617,VALID,17.4941,VALID,94,VALID,0.819586,
2004-06-08, 00:28:00,VALID,918.763,VALID,0,VALID,100,VALID,0,VALID,17.555,VALID,93,VALID,0.46875,
2004-06-08, 00:29:00,VALID,918.74,VALID,0,VALID,99.8538,VALID,0,VALID,17.5358,VALID,93,VALID,0.347842,
2004-06-08, 00:30:00,VALID,918.742,VALID,0,VALID,99.5209,VALID,0,VALID,17.5137,VALID,93,VALID,0.0177083,
2004-06-08, 00:31:00,VALID,918.745,VALID,0,VALID,99.2411,VALID,-0.0169808,VALID,17.4618,VALID,93,VALID,0,
2004-06-08, 00:32:00,VALID,918.711,VALID,0,VALID,98.8278,VALID,0,VALID,17.3749,VALID,93,VALID,0.0257994,
2004-06-08, 00:33:00,VALID,918.695,VALID,0,VALID,98.7096,VALID,0,VALID,17.3101,VALID,93,VALID,0.219638,
2004-06-08, 00:34:00,VALID,918.687,VALID,0,VALID,98.9397,VALID,0,VALID,17.2912,VALID,93,VALID,0.446528,
2004-06-08, 00:35:00,VALID,918.684,VALID,0,VALID,98.8723,VALID,0,VALID,17.2357,VALID,93,VALID,0.319404,
2004-06-08, 00:36:00,VALID,918.666,VALID,0,VALID,98.969,VALID,0,VALID,17.1944,VALID,93,VALID,0.0905918,
2004-06-08, 00:37:00,VALID,918.648,VALID,0,VALID,99.1928,VALID,0,VALID,17.1715,VALID,93,VALID,0.0876359,
2004-06-08, 00:38:00,VALID,918.619,VALID,0,VALID,99.7698,VALID,0,VALID,17.1911,VALID,93,VALID,0.396289,
2004-06-08, 00:39:00,VALID,918.602,VALID,0,VALID,100,VALID,0,VALID,17.2716,VALID,92,VALID,0.70258,
2004-06-08, 00:40:00,VALID,918.597,VALID,0,VALID,100,VALID,0.0169808,VALID,17.3071,VALID,87,VALID,0.785247,
2004-06-08, 00:41:00,VALID,918.599,VALID,0,VALID,100,VALID,0,VALID,17.3714,VALID,87,VALID,0.669457,
2004-06-08, 00:42:00,VALID,918.595,VALID,0,VALID,99.9837,VALID,0.0169808,VALID,17.4041,VALID,82,VALID,0.530571,
2004-06-08, 00:43:01,VALID,918.593,VALID,0,VALID,99.3772,VALID,0,VALID,17.2453,VALID,81,VALID,0.369851,
2004-06-08, 00:44:00,VALID,918.591,VALID,0,VALID,98.7541,VALID,0.0169808,VALID,17.0909,VALID,81,VALID,0.128634,
2004-06-08, 00:45:00,VALID,918.588,VALID,0,VALID,98.674,VALID,0.0679233,VALID,17.013,VALID,81,VALID,0,
2004-06-08, 00:46:00,VALID,918.583,VALID,0,VALID,98.8825,VALID,0.0169808,VALID,16.9938,VALID,81,VALID,0,
2004-06-08, 00:47:00,VALID,918.569,VALID,0,VALID,99.3009,VALID,0.0339617,VALID,17.0164,VALID,81,VALID,0,
2004-06-08, 00:48:00,VALID,918.56,VALID,0,VALID,99.5743,VALID,0,VALID,17.0453,VALID,81,VALID,0,
2004-06-08, 00:49:00,VALID,918.542,VALID,0,VALID,99.6531,VALID,0,VALID,17.0485,VALID,81,VALID,0,
2004-06-08, 00:50:00,VALID,918.512,VALID,0,VALID,99.9234,VALID,-0.0339617,VALID,17.082,VALID,81,VALID,0,
2004-06-08, 00:51:00,VALID,918.506,VALID,0,VALID,99.9563,VALID,-0.0849042,VALID,17.1081,VALID,81,VALID,0.183503,
2004-06-08, 00:52:00,VALID,918.5,VALID,0,VALID,99.718,VALID,-0.101885,VALID,17.0534,VALID,81,VALID,0.435096,
2004-06-08, 00:53:00,VALID,918.495,VALID,0,VALID,99.1165,VALID,-0.101885,VALID,16.9213,VALID,81,VALID,0.293576,
2004-06-08, 00:54:00,VALID,918.489,VALID,0,VALID,99.0453,VALID,-0.0849042,VALID,16.8144,VALID,67,VALID,0.311328,
2004-06-08, 00:55:01,VALID,918.485,VALID,0,VALID,99.7482,VALID,-0.101885,VALID,16.8991,VALID,45,VALID,0.0890625,
2004-06-08, 00:56:01,VALID,918.497,VALID,0,VALID,100,VALID,-0.101885,VALID,16.96,VALID,45,VALID,0.117543,
2004-06-08, 00:57:00,VALID,918.487,VALID,0,VALID,99.9245,VALID,-0.0849042,VALID,16.9467,VALID,45,VALID,0.423234,
2004-06-08, 00:58:00,VALID,918.488,VALID,0,VALID,99.7256,VALID,-0.101885,VALID,16.8697,VALID,45,VALID,0.601563,
2004-06-08, 00:59:00,VALID,918.478,VALID,0,VALID,100,VALID,-0.101885,VALID,16.9215,VALID,45,VALID,0.515625,
2004-06-08, 01:00:00,VALID,918.473,VALID,0,VALID,100,VALID,-0.101885,VALID,17.025,VALID,46,VALID,0.163175,
2004-06-08, 01:01:01,VALID,918.478,VALID,0,VALID,100,VALID,-0.101885,VALID,17.0379,VALID,46,VALID,0,
2004-06-08, 01:02:00,VALID,918.477,VALID,0,VALID,100,VALID,-0.0849042,VALID,17.0113,VALID,46,VALID,0,
2004-06-08, 01:03:00,VALID,918.461,VALID,0,VALID,100,VALID,-0.0849042,VALID,16.9921,VALID,46,VALID,0.019077,
2004-06-08, 01:04:01,VALID,918.433,VALID,0,VALID,100,VALID,-0.0509425,VALID,16.9856,VALID,62,VALID,0.529297,
2004-06-08, 01:05:00,VALID,918.424,VALID,0,VALID,100,VALID,-0.0339617,VALID,16.9691,VALID,85,VALID,0.564732,
2004-06-08, 01:06:01,VALID,918.397,VALID,0,VALID,100,VALID,0.0339617,VALID,16.9231,VALID,80,VALID,0.273996,
2004-06-08, 01:07:00,VALID,918.374,VALID,0,VALID,99.8296,VALID,0.0339617,VALID,16.7905,VALID,80,VALID,0.624805,
2004-06-08, 01:08:00,VALID,918.343,VALID,0,VALID,100,VALID,0.0679233,VALID,16.8452,VALID,80,VALID,0.746875,
2004-06-08, 01:09:01,VALID,918.333,VALID,0,VALID,100,VALID,0.0339617,VALID,17.0166,VALID,65,VALID,0.929878,
2004-06-08, 01:10:01,VALID,918.321,VALID,0,VALID,100,VALID,0.0339617,VALID,17.1492,VALID,65,VALID,1.12779,
2004-06-08, 01:11:00,VALID,918.316,VALID,0,VALID,100,VALID,0,VALID,17.2268,VALID,65,VALID,1.05771,
2004-06-08, 01:12:00,VALID,918.313,VALID,0,VALID,100,VALID,0.0169808,VALID,17.1227,VALID,65,VALID,0.470749,
2004-06-08, 01:13:00,VALID,918.306,VALID,0,VALID,100,VALID,0.0169808,VALID,17.0166,VALID,68,VALID,0.590732,
2004-06-08, 01:14:00,VALID,918.304,VALID,0,VALID,100,VALID,0.0339617,VALID,17.1393,VALID,83,VALID,0.565476,
2004-06-08, 01:15:01,VALID,918.302,VALID,0,VALID,100,VALID,0.0169808,VALID,17.0881,VALID,83,VALID,0.0666921,
2004-06-08, 01:16:01,VALID,918.298,VALID,0,VALID,100,VALID,0.0169808,VALID,17.0199,VALID,83,VALID,0.256696,
2004-06-08, 01:17:00,VALID,918.286,VALID,0,VALID,100,VALID,0,VALID,16.9906,VALID,83,VALID,0.350694,
2004-06-08, 01:18:00,VALID,918.27,VALID,0,VALID,100,VALID,0,VALID,16.9749,VALID,83,VALID,0.494284,
2004-06-08, 01:19:01,VALID,918.263,VALID,0,VALID,100,VALID,0.0339617,VALID,16.9973,VALID,83,VALID,0.148438,
2004-06-08, 01:20:01,VALID,918.234,VALID,0,VALID,100,VALID,-0.0509425,VALID,16.9755,VALID,83,VALID,0.231213,
2004-06-08, 01:21:00,VALID,918.216,VALID,0,VALID,100,VALID,-0.0849042,VALID,16.9469,VALID,83,VALID,0.00225694,
2004-06-08, 01:22:00,VALID,918.192,VALID,0,VALID,99.9865,VALID,-0.101885,VALID,16.8989,VALID,83,VALID,0.44077,
2004-06-08, 01:23:00,VALID,918.161,VALID,0,VALID,100,VALID,-0.0849042,VALID,16.8667,VALID,150,VALID,0.516513,
2004-06-08, 01:24:01,VALID,918.148,VALID,0,VALID,100,VALID,-0.101885,VALID,16.8735,VALID,150,VALID,0.821221,
2004-06-08, 01:25:00,VALID,918.122,VALID,0,VALID,100,VALID,-0.101885,VALID,16.9026,VALID,138,VALID,0.953852,
2004-06-08, 01:26:01,VALID,918.104,VALID,0,VALID,100,VALID,-0.0509425,VALID,17.002,VALID,136,VALID,1.1224,
2004-06-08, 01:27:01,VALID,918.1,VALID,0,VALID,100,VALID,-0.0679233,VALID,17.0928,VALID,140,VALID,0.896662,
2004-06-08, 01:28:01,VALID,918.097,VALID,0,VALID,100,VALID,-0.101885,VALID,17.1186,VALID,125,VALID,0.641927,
2004-06-08, 01:29:01,VALID,918.084,VALID,0,VALID,100,VALID,-0.0849042,VALID,17.1345,VALID,129,VALID,0.977604,
2004-06-08, 01:30:01,VALID,918.071,VALID,0,VALID,100,VALID,-0.0509425,VALID,17.144,VALID,94,VALID,0.962003,
2004-06-08, 01:31:01,VALID,918.071,VALID,0,VALID,100,VALID,-0.0849042,VALID,17.0597,VALID,87,VALID,0.696023,
2004-06-08, 01:32:00,VALID,918.044,VALID,0,VALID,100,VALID,-0.0679233,VALID,17.0926,VALID,96,VALID,0.747142,
2004-06-08, 01:33:01,VALID,918.024,VALID,0,VALID,99.909,VALID,-0.0849042,VALID,17.0599,VALID,86,VALID,0.505022,
2004-06-08, 01:34:00,VALID,918.018,VALID,0,VALID,99.7012,VALID,-0.101885,VALID,16.9149,VALID,87,VALID,0.742708,
2004-06-08, 01:35:01,VALID,918.001,VALID,0,VALID,100,VALID,-0.0849042,VALID,16.9699,VALID,99,VALID,0.886446,
2004-06-08, 01:36:00,VALID,917.975,VALID,0,VALID,100,VALID,-0.0849042,VALID,17.0117,VALID,105,VALID,1.03652,
2004-06-08, 01:37:00,VALID,917.964,VALID,0,VALID,100,VALID,-0.101885,VALID,17.1023,VALID,113,VALID,1.07013,
2004-06-08, 01:38:00,VALID,917.953,VALID,0,VALID,100,VALID,-0.0849042,VALID,17.1317,VALID,132,VALID,1.42076,
2004-06-08, 01:39:01,VALID,917.947,VALID,0,VALID,100,VALID,-0.0849042,VALID,17.1636,VALID,124,VALID,1.20434,
2004-06-08, 01:40:01,VALID,917.949,VALID,0,VALID,100,VALID,-0.101885,VALID,17.1797,VALID,127,VALID,1.27443,
2004-06-08, 01:41:00,VALID,917.948,VALID,0,VALID,100,VALID,-0.0849042,VALID,17.209,VALID,118,VALID,1.04948,
2004-06-08, 01:42:01,VALID,917.953,VALID,0,VALID,100,VALID,-0.101885,VALID,17.2314,VALID,116,VALID,1.02058,
2004-06-08, 01:43:00,VALID,917.964,VALID,0,VALID,100,VALID,-0.101885,VALID,17.2445,VALID,110,VALID,1.36966,
2004-06-08, 01:44:01,VALID,917.98,VALID,0,VALID,100,VALID,-0.101885,VALID,17.2931,VALID,120,VALID,1.47621,
2004-06-08, 01:45:00,VALID,917.987,VALID,0,VALID,100,VALID,-0.101885,VALID,17.3319,VALID,129,VALID,1.3995,
2004-06-08, 01:46:00,VALID,917.98,VALID,0,VALID,100,VALID,-0.118866,VALID,17.3282,VALID,128,VALID,1.35102,
2004-06-08, 01:47:00,VALID,917.979,VALID,0,VALID,100,VALID,-0.0849042,VALID,17.3185,VALID,132,VALID,1.51871,
2004-06-08, 01:48:01,VALID,917.988,VALID,0,VALID,100,VALID,-0.0679233,VALID,17.3185,VALID,131,VALID,1.36464,
2004-06-08, 01:49:00,VALID,917.987,VALID,0,VALID,100,VALID,-0.0849042,VALID,17.3284,VALID,125,VALID,1.18397,
2004-06-08, 01:50:01,VALID,917.989,VALID,0,VALID,100,VALID,-0.0339617,VALID,17.3211,VALID,130,VALID,1.32146,
2004-06-08, 01:51:01,VALID,918.003,VALID,0,VALID,100,VALID,0.0339617,VALID,17.3465,VALID,126,VALID,1.53239,
2004-06-08, 01:52:00,VALID,918.011,VALID,0,VALID,100,VALID,0.0339617,VALID,17.3781,VALID,132,VALID,1.52051,
2004-06-08, 01:53:00,VALID,918.003,VALID,0.2,VALID,100,VALID,0.0169808,VALID,17.3981,VALID,126,VALID,1.4974,
2004-06-08, 01:54:00,VALID,918.005,VALID,0,VALID,100,VALID,0.0169808,VALID,17.4041,VALID,123,VALID,1.57217,
2004-06-08, 01:55:00,VALID,917.987,VALID,0,VALID,100,VALID,0,VALID,17.4459,VALID,116,VALID,1.7516,
2004-06-08, 01:56:00,VALID,917.985,VALID,0,VALID,99.9903,VALID,0,VALID,17.4975,VALID,115,VALID,1.83049,
2004-06-08, 01:57:01,VALID,917.988,VALID,0,VALID,99.7726,VALID,-0.0169808,VALID,17.5625,VALID,116,VALID,1.95845,
2004-06-08, 01:58:00,VALID,917.971,VALID,0,VALID,99.3886,VALID,0.0169808,VALID,17.6271,VALID,116,VALID,1.90885,
2004-06-08, 01:59:00,VALID,917.969,VALID,0,VALID,98.913,VALID,0,VALID,17.6757,VALID,123,VALID,1.70103,
2004-06-08, 02:00:00,VALID,917.98,VALID,0,VALID,98.5163,VALID,0,VALID,17.6884,VALID,128,VALID,1.37802,
2004-06-08, 02:01:01,VALID,918,VALID,0,VALID,98.3828,VALID,0,VALID,17.6626,VALID,123,VALID,1.38186,
2004-06-08, 02:02:00,VALID,918.008,VALID,0,VALID,98.4311,VALID,0,VALID,17.6662,VALID,123,VALID,1.27646,
2004-06-08, 02:03:00,VALID,918.009,VALID,0,VALID,98.4082,VALID,0,VALID,17.6693,VALID,113,VALID,1.25636,
2004-06-08, 02:04:01,VALID,918.011,VALID,0,VALID,98.3675,VALID,0.0339617,VALID,17.6524,VALID,107,VALID,1.18387,
2004-06-08, 02:05:01,VALID,917.993,VALID,0,VALID,98.3853,VALID,-0.0679233,VALID,17.6794,VALID,99,VALID,0.978051,
2004-06-08, 02:06:01,VALID,918.003,VALID,0,VALID,98.1844,VALID,-0.101885,VALID,17.7091,VALID,103,VALID,1.11875,
2004-06-08, 02:07:00,VALID,917.993,VALID,0,VALID,97.9403,VALID,-0.101885,VALID,17.7192,VALID,100,VALID,1.17624,
2004-06-08, 02:08:01,VALID,917.996,VALID,0,VALID,97.9428,VALID,-0.0849042,VALID,17.7225,VALID,91,VALID,0.898638,
2004-06-08, 02:09:00,VALID,917.992,VALID,0,VALID,97.9415,VALID,-0.0849042,VALID,17.7313,VALID,109,VALID,0.76508,
2004-06-08, 02:10:01,VALID,917.987,VALID,0,VALID,97.4431,VALID,-0.101885,VALID,17.7022,VALID,109,VALID,0.364211,
2004-06-08, 02:11:01,VALID,917.978,VALID,0,VALID,97.4761,VALID,-0.0849042,VALID,17.6637,VALID,109,VALID,0.565387,
2004-06-08, 02:12:01,VALID,917.977,VALID,0,VALID,97.6478,VALID,-0.0849042,VALID,17.618,VALID,110,VALID,0.705611,
2004-06-08, 02:13:01,VALID,917.985,VALID,0,VALID,97.9937,VALID,-0.0849042,VALID,17.589,VALID,112,VALID,1.05431,
2004-06-08, 02:14:01,VALID,917.985,VALID,0,VALID,98.1653,VALID,-0.101885,VALID,17.5825,VALID,110,VALID,0.899414,
2004-06-08, 02:15:00,VALID,917.977,VALID,0,VALID,98.1602,VALID,-0.0849042,VALID,17.5733,VALID,122,VALID,1.24963,
2004-06-08, 02:16:00,VALID,917.995,VALID,0,VALID,98.262,VALID,-0.0849042,VALID,17.5606,VALID,119,VALID,1.16332,
2004-06-08, 02:17:01,VALID,917.987,VALID,0,VALID,98.4133,VALID,-0.0679233,VALID,17.5694,VALID,110,VALID,1.33929,
2004-06-08, 02:18:01,VALID,918.007,VALID,0,VALID,98.1819,VALID,-0.0849042,VALID,17.6118,VALID,116,VALID,1.60268,
2004-06-08, 02:19:01,VALID,918.008,VALID,0,VALID,97.8144,VALID,-0.0849042,VALID,17.6208,VALID,123,VALID,1.38136,
2004-06-08, 02:20:01,VALID,918,VALID,0,VALID,97.6923,VALID,0,VALID,17.6333,VALID,118,VALID,1.30547,
2004-06-08, 02:21:01,VALID,917.977,VALID,0,VALID,97.5143,VALID,0,VALID,17.6755,VALID,110,VALID,1.34375,
2004-06-08, 02:22:01,VALID,917.962,VALID,0,VALID,97.2269,VALID,0.0169808,VALID,17.691,VALID,104,VALID,1.05664,
2004-06-08, 02:23:01,VALID,917.956,VALID,0,VALID,96.9878,VALID,0,VALID,17.697,VALID,103,VALID,0.922763,
2004-06-08, 02:24:01,VALID,917.928,VALID,0,VALID,96.7678,VALID,0,VALID,17.6944,VALID,99,VALID,0.795573,
2004-06-08, 02:25:00,VALID,917.909,VALID,0,VALID,96.4538,VALID,0.0339617,VALID,17.6617,VALID,78,VALID,0.590972,
2004-06-08, 02:26:01,VALID,917.899,VALID,0,VALID,96.3775,VALID,0.0169808,VALID,17.5875,VALID,82,VALID,0.760045,
2004-06-08, 02:27:01,VALID,917.891,VALID,0,VALID,96.9713,VALID,0.0339617,VALID,17.5457,VALID,92,VALID,0.438743,
2004-06-08, 02:28:01,VALID,917.861,VALID,0,VALID,97.0641,VALID,0.0169808,VALID,17.5167,VALID,93,VALID,0.375363,
2004-06-08, 02:29:01,VALID,917.851,VALID,0,VALID,97.2307,VALID,0,VALID,17.4751,VALID,102,VALID,0.545833,
2004-06-08, 02:30:01,VALID,917.822,VALID,0,VALID,97.5804,VALID,0.0169808,VALID,17.456,VALID,106,VALID,1.21203,
2004-06-08, 02:31:01,VALID,917.8,VALID,0,VALID,97.9097,VALID,0.0849042,VALID,17.4655,VALID,103,VALID,1.39509,
2004-06-08, 02:32:01,VALID,917.797,VALID,0,VALID,97.6796,VALID,0.0169808,VALID,17.5393,VALID,89,VALID,1.2316,
2004-06-08, 02:33:01,VALID,917.773,VALID,0,VALID,97.1391,VALID,0.0169808,VALID,17.5462,VALID,79,VALID,1.06014,
2004-06-08, 02:34:01,VALID,917.75,VALID,0,VALID,96.8416,VALID,0.0169808,VALID,17.4745,VALID,73,VALID,1.10007,
2004-06-08, 02:35:01,VALID,917.716,VALID,0,VALID,97.279,VALID,-0.0679233,VALID,17.4207,VALID,71,VALID,1.33036,
2004-06-08, 02:36:01,VALID,917.69,VALID,0,VALID,97.7953,VALID,-0.0849042,VALID,17.4055,VALID,84,VALID,1.42696,
2004-06-08, 02:37:01,VALID,917.655,VALID,0,VALID,98.0585,VALID,-0.0849042,VALID,17.4184,VALID,80,VALID,1.30747,
2004-06-08, 02:38:01,VALID,917.635,VALID,0,VALID,98.1043,VALID,-0.101885,VALID,17.4216,VALID,83,VALID,1.21761,
2004-06-08, 02:39:01,VALID,917.617,VALID,0,VALID,98.2709,VALID,-0.101885,VALID,17.4375,VALID,92,VALID,1.05433,
2004-06-08, 02:40:01,VALID,917.609,VALID,0,VALID,98.2645,VALID,-0.0679233,VALID,17.4702,VALID,103,VALID,0.956555,
2004-06-08, 02:41:01,VALID,917.589,VALID,0,VALID,98.0661,VALID,-0.101885,VALID,17.4961,VALID,94,VALID,0.829055,
2004-06-08, 02:42:01,VALID,917.59,VALID,0,VALID,96.9484,VALID,-0.101885,VALID,17.425,VALID,79,VALID,0.43767,
2004-06-08, 02:43:01,VALID,917.57,VALID,0,VALID,96.305,VALID,-0.101885,VALID,17.2697,VALID,79,VALID,0.18657,
2004-06-08, 02:44:01,VALID,917.566,VALID,0,VALID,97.0807,VALID,-0.101885,VALID,17.1995,VALID,88,VALID,0.528274,
2004-06-08, 02:45:01,VALID,917.548,VALID,0,VALID,97.8525,VALID,-0.118866,VALID,17.1862,VALID,126,VALID,1.06399,
2004-06-08, 02:46:01,VALID,917.541,VALID,0,VALID,98.3777,VALID,-0.118866,VALID,17.1733,VALID,135,VALID,1.11879,
2004-06-08, 02:47:01,VALID,917.517,VALID,0,VALID,98.8533,VALID,-0.101885,VALID,17.1991,VALID,134,VALID,0.874112,
2004-06-08, 02:48:01,VALID,917.507,VALID,0,VALID,98.9703,VALID,-0.101885,VALID,17.2025,VALID,127,VALID,0.867569,
2004-06-08, 02:49:01,VALID,917.49,VALID,0,VALID,98.8075,VALID,-0.101885,VALID,17.1858,VALID,109,VALID,0.649306,
2004-06-08, 02:50:01,VALID,917.481,VALID,0,VALID,98.1997,VALID,-0.101885,VALID,17.0857,VALID,81,VALID,0.668241,
2004-06-08, 02:51:01,VALID,917.467,VALID,0,VALID,98.6689,VALID,-0.0849042,VALID,17.0409,VALID,88,VALID,0.799653,
2004-06-08, 02:52:01,VALID,917.449,VALID,0,VALID,98.763,VALID,-0.101885,VALID,17.0472,VALID,78,VALID,0.725521,
2004-06-08, 02:53:01,VALID,917.429,VALID,0,VALID,98.4667,VALID,-0.0849042,VALID,16.9727,VALID,79,VALID,0.674055,
2004-06-08, 02:54:00,VALID,917.41,VALID,0,VALID,98.487,VALID,-0.101885,VALID,16.9312,VALID,84,VALID,0.636991,
2004-06-08, 02:55:00,VALID,917.378,VALID,0,VALID,98.3612,VALID,-0.0849042,VALID,16.8669,VALID,83,VALID,0.455543,
2004-06-08, 02:56:00,VALID,917.352,VALID,0,VALID,98.9156,VALID,-0.101885,VALID,16.8146,VALID,105,VALID,0.931286,
2004-06-08, 02:57:00,VALID,917.311,VALID,0,VALID,99.9209,VALID,-0.101885,VALID,16.9282,VALID,121,VALID,1.40854,
2004-06-08, 02:58:00,VALID,917.284,VALID,0,VALID,99.8891,VALID,-0.101885,VALID,17.0052,VALID,123,VALID,1.37038,
2004-06-08, 02:59:00,VALID,917.267,VALID,0,VALID,99.6328,VALID,-0.101885,VALID,17.0022,VALID,127,VALID,1.54578,
2004-06-08, 03:00:00,VALID,917.239,VALID,0,VALID,99.8667,VALID,-0.101885,VALID,17.0513,VALID,127,VALID,1.54512,
2004-06-08, 03:01:00,VALID,917.228,VALID,0,VALID,99.7497,VALID,-0.118866,VALID,17.0601,VALID,121,VALID,1.45149,
2004-06-08, 03:02:00,VALID,917.237,VALID,0,VALID,99.5921,VALID,-0.101885,VALID,17.0702,VALID,118,VALID,1.25986,
2004-06-08, 03:03:00,VALID,917.24,VALID,0,VALID,99.5641,VALID,-0.101885,VALID,17.0803,VALID,112,VALID,1.35538,
2004-06-08, 03:04:00,VALID,917.23,VALID,0,VALID,99.5997,VALID,-0.101885,VALID,17.1087,VALID,116,VALID,1.38415,
2004-06-08, 03:05:00,VALID,917.244,VALID,0,VALID,99.5285,VALID,-0.0679233,VALID,17.1369,VALID,106,VALID,1.14539,
2004-06-08, 03:06:00,VALID,917.241,VALID,0,VALID,99.2576,VALID,0.0169808,VALID,17.1851,VALID,96,VALID,0.770198,
2004-06-08, 03:07:00,VALID,917.239,VALID,0,VALID,99.1788,VALID,0,VALID,17.1784,VALID,119,VALID,0.9641,
2004-06-08, 03:08:00,VALID,917.24,VALID,0,VALID,99.0694,VALID,0,VALID,17.1881,VALID,112,VALID,0.658537,
2004-06-08, 03:09:00,VALID,917.225,VALID,0,VALID,99.0198,VALID,0.0169808,VALID,17.1845,VALID,110,VALID,0.602148,
2004-06-08, 03:10:00,VALID,917.225,VALID,0,VALID,98.9346,VALID,0,VALID,17.1784,VALID,118,VALID,0.941761,
2004-06-08, 03:11:00,VALID,917.225,VALID,0,VALID,98.8062,VALID,0.0169808,VALID,17.1492,VALID,110,VALID,1.11233,
2004-06-08, 03:12:00,VALID,917.224,VALID,0,VALID,98.7935,VALID,0.0339617,VALID,17.1305,VALID,92,VALID,0.975675,
2004-06-08, 03:13:00,VALID,917.216,VALID,0,VALID,99.1585,VALID,-0.0169808,VALID,17.1335,VALID,102,VALID,1.26842,
2004-06-08, 03:14:00,VALID,917.217,VALID,0,VALID,99.3225,VALID,0,VALID,17.1918,VALID,99,VALID,1.33521,
2004-06-08, 03:15:00,VALID,917.221,VALID,0,VALID,99.0834,VALID,0,VALID,17.2333,VALID,103,VALID,1.15516,
2004-06-08, 03:16:00,VALID,917.219,VALID,0,VALID,98.852,VALID,0,VALID,17.2817,VALID,99,VALID,0.840661,
2004-06-08, 03:17:00,VALID,917.198,VALID,0,VALID,98.6091,VALID,0,VALID,17.3176,VALID,101,VALID,0.946057,
2004-06-08, 03:18:00,VALID,917.188,VALID,0,VALID,98.3344,VALID,0.0169808,VALID,17.3491,VALID,124,VALID,1.25838,
2004-06-08, 03:19:00,VALID,917.171,VALID,0,VALID,97.9759,VALID,0,VALID,17.3788,VALID,132,VALID,1.04651,
2004-06-08, 03:20:00,VALID,917.158,VALID,0,VALID,97.7559,VALID,-0.0169808,VALID,17.3792,VALID,129,VALID,0.725074,
2004-06-08, 03:21:00,VALID,917.139,VALID,0,VALID,97.9161,VALID,-0.0509425,VALID,17.379,VALID,135,VALID,0.759233,
2004-06-08, 03:22:00,VALID,917.123,VALID,0,VALID,97.9237,VALID,-0.0339617,VALID,17.376,VALID,134,VALID,0.443004,
2004-06-08, 03:23:00,VALID,917.099,VALID,0,VALID,97.9237,VALID,-0.0679233,VALID,17.3757,VALID,134,VALID,0.398237,
2004-06-08, 03:24:00,VALID,917.081,VALID,0,VALID,97.9898,VALID,-0.0509425,VALID,17.3628,VALID,131,VALID,0.482851,
2004-06-08, 03:25:00,VALID,917.063,VALID,0,VALID,96.8111,VALID,-0.0679233,VALID,17.2438,VALID,48,VALID,0.573219,
2004-06-08, 03:26:00,VALID,917.05,VALID,0,VALID,96.7322,VALID,-0.0339617,VALID,17.0984,VALID,36,VALID,0.403166,
2004-06-08, 03:27:00,VALID,917.042,VALID,0,VALID,96.8925,VALID,-0.0849042,VALID,17.0151,VALID,36,VALID,0.602134,
2004-06-08, 03:28:00,VALID,917.045,VALID,0,VALID,97.321,VALID,-0.0509425,VALID,16.9239,VALID,36,VALID,0.507994,
2004-06-08, 03:29:00,VALID,917.046,VALID,0,VALID,97.8868,VALID,0,VALID,16.8886,VALID,36,VALID,0.494391,
2004-06-08, 03:30:00,VALID,917.042,VALID,0,VALID,98.2315,VALID,-0.0169808,VALID,16.8594,VALID,36,VALID,0.348323,
2004-06-08, 03:31:00,VALID,917.047,VALID,0,VALID,98.6574,VALID,-0.0339617,VALID,16.8858,VALID,36,VALID,0.322976,
2004-06-08, 03:32:00,VALID,917.049,VALID,0,VALID,98.4883,VALID,-0.0679233,VALID,16.837,VALID,36,VALID,0.119531,
2004-06-08, 03:33:00,VALID,917.046,VALID,0,VALID,98.7083,VALID,-0.0509425,VALID,16.815,VALID,124,VALID,0.512173,
2004-06-08, 03:34:00,VALID,917.049,VALID,0,VALID,99.1559,VALID,-0.0849042,VALID,16.8217,VALID,140,VALID,0.909801,
2004-06-08, 03:35:00,VALID,917.062,VALID,0,VALID,99.7625,VALID,-0.0169808,VALID,16.8888,VALID,131,VALID,0.929878,